Time,TemperatureF,DewpointF,PressureIn,WindDirection,WindDirectionDegrees,WindSpeedMPH,WindSpeedGustMPH,Humidity,HourlyPrecipIn,Conditions,Clouds,dailyrainin,SoftwareType,DateUTC
2013-03-27 00:00:00,49.9,28.9,30.31,SE,145,0.0,5.0,44,0.00,,,0.00,VWS V14.01,2013-03-27 05:00:00,
2013-03-27 00:04:00,49.6,28.6,30.31,SE,131,1.0,2.0,44,0.00,,,0.00,VWS V14.01,2013-03-27 05:04:00,
2013-03-27 00:09:00,49.3,28.9,30.31,ENE,70,2.0,4.0,45,0.00,,,0.00,VWS V14.01,2013-03-27 05:09:00,
2013-03-27 00:14:00,49.1,29.2,30.31,SE,131,2.0,4.0,46,0.00,,,0.00,VWS V14.01,2013-03-27 05:14:00,
2013-03-27 00:19:00,49.1,29.2,30.31,SSW,211,2.0,4.0,46,0.00,,,0.00,VWS V14.01,2013-03-27 05:19:00,
2013-03-27 00:24:00,48.9,29.6,30.31,SE,142,2.0,4.0,47,0.00,,,0.00,VWS V14.01,2013-03-27 05:24:00,
2013-03-27 00:29:00,48.6,29.3,30.31,East,92,0.0,4.0,47,0.00,,,0.00,VWS V14.01,2013-03-27 05:29:00,
2013-03-27 00:30:00,48.6,29.3,30.31,SE,135,0.0,4.0,47,0.00,,,0.00,VWS V14.01,2013-03-27 05:30:00,
2013-03-27 00:34:00,48.5,29.7,30.31,ESE,108,1.0,5.0,48,0.00,,,0.00,VWS V14.01,2013-03-27 05:34:00,
2013-03-27 00:39:00,48.4,29.6,30.31,South,183,0.0,5.0,48,0.00,,,0.00,VWS V14.01,2013-03-27 05:39:00,
2013-03-27 00:44:00,48.3,30.0,30.30,ESE,117,1.0,5.0,49,0.00,,,0.00,VWS V14.01,2013-03-27 05:44:00,
2013-03-27 00:49:00,48.2,30.0,30.31,ESE,120,1.0,5.0,49,0.00,,,0.00,VWS V14.01,2013-03-27 05:49:00,
2013-03-27 00:54:00,48.1,29.9,30.31,SSW,198,0.0,5.0,49,0.00,,,0.00,VWS V14.01,2013-03-27 05:54:00,
2013-03-27 00:59:00,47.9,30.2,30.30,ESE,115,2.0,5.0,50,0.00,,,0.00,VWS V14.01,2013-03-27 05:59:00,
2013-03-27 01:00:00,47.9,30.2,30.30,SE,145,0.0,5.0,50,0.00,,,0.00,VWS V14.01,2013-03-27 06:00:00,
2013-03-27 01:04:00,47.6,29.9,30.30,SE,146,1.0,2.0,50,0.00,,,0.00,VWS V14.01,2013-03-27 06:04:00,
2013-03-27 01:09:00,47.4,29.7,30.30,SSE,155,0.0,3.0,50,0.00,,,0.00,VWS V14.01,2013-03-27 06:09:00,
2013-03-27 01:14:00,47.3,30.1,30.30,SSE,160,0.0,3.0,51,0.00,,,0.00,VWS V14.01,2013-03-27 06:14:00,
2013-03-27 01:19:00,47.1,29.9,30.29,SSE,166,0.0,3.0,51,0.00,,,0.00,VWS V14.01,2013-03-27 06:19:00,
2013-03-27 01:24:00,47.0,30.3,30.29,SE,139,1.0,3.0,52,0.00,,,0.00,VWS V14.01,2013-03-27 06:24:00,
2013-03-27 01:29:00,46.8,30.1,30.29,South,178,0.0,3.0,52,0.00,,,0.00,VWS V14.01,2013-03-27 06:29:00,
2013-03-27 01:30:00,46.9,30.2,30.29,South,177,0.0,3.0,52,0.00,,,0.00,VWS V14.01,2013-03-27 06:30:00,
2013-03-27 01:34:00,46.7,30.5,30.29,SSW,201,3.0,3.0,53,0.00,,,0.00,VWS V14.01,2013-03-27 06:34:00,
2013-03-27 01:39:00,46.7,30.5,30.29,SSE,150,0.0,3.0,53,0.00,,,0.00,VWS V14.01,2013-03-27 06:39:00,
2013-03-27 01:44:00,46.6,30.4,30.29,SSE,165,0.0,3.0,53,0.00,,,0.00,VWS V14.01,2013-03-27 06:44:00,
2013-03-27 01:49:00,46.4,30.2,30.29,ESE,110,1.0,3.0,53,0.00,,,0.00,VWS V14.01,2013-03-27 06:49:00,
2013-03-27 01:54:00,46.3,30.6,30.28,SE,136,0.0,3.0,54,0.00,,,0.00,VWS V14.01,2013-03-27 06:54:00,
2013-03-27 01:59:00,46.2,30.5,30.28,SE,134,0.0,3.0,54,0.00,,,0.00,VWS V14.01,2013-03-27 06:59:00,
2013-03-27 02:00:00,46.2,30.5,30.28,SE,125,1.0,3.0,54,0.00,,,0.00,VWS V14.01,2013-03-27 07:00:00,
2013-03-27 02:04:00,46.1,30.9,30.28,ESE,116,0.0,1.0,55,0.00,,,0.00,VWS V14.01,2013-03-27 07:04:00,
2013-03-27 02:09:00,46.0,30.8,30.28,ESE,111,1.0,3.0,55,0.00,,,0.00,VWS V14.01,2013-03-27 07:09:00,
2013-03-27 02:14:00,46.0,30.8,30.28,SE,127,1.0,3.0,55,0.00,,,0.00,VWS V14.01,2013-03-27 07:14:00,
2013-03-27 02:19:00,45.9,30.7,30.28,SE,131,0.0,3.0,55,0.00,,,0.00,VWS V14.01,2013-03-27 07:19:00,
2013-03-27 02:24:00,45.7,30.5,30.28,ESE,120,0.0,3.0,55,0.00,,,0.00,VWS V14.01,2013-03-27 07:24:00,
2013-03-27 02:29:00,45.6,30.8,30.28,ESE,112,2.0,3.0,56,0.00,,,0.00,VWS V14.01,2013-03-27 07:29:00,
2013-03-27 02:30:00,45.6,30.8,30.28,SE,125,1.0,3.0,56,0.00,,,0.00,VWS V14.01,2013-03-27 07:30:00,
2013-03-27 02:34:00,45.4,30.6,30.28,South,188,0.0,1.0,56,0.00,,,0.00,VWS V14.01,2013-03-27 07:34:00,
2013-03-27 02:39:00,45.2,30.5,30.28,SSE,155,0.0,2.0,56,0.00,,,0.00,VWS V14.01,2013-03-27 07:39:00,
2013-03-27 02:44:00,45.1,30.4,30.27,South,184,2.0,2.0,56,0.00,,,0.00,VWS V14.01,2013-03-27 07:44:00,
2013-03-27 02:49:00,45.0,30.7,30.27,South,181,1.0,2.0,57,0.00,,,0.00,VWS V14.01,2013-03-27 07:49:00,
2013-03-27 02:54:00,44.8,30.5,30.27,SSW,204,0.0,2.0,57,0.00,,,0.00,VWS V14.01,2013-03-27 07:54:00,
2013-03-27 02:59:00,44.7,30.4,30.27,SSE,155,1.0,2.0,57,0.00,,,0.00,VWS V14.01,2013-03-27 07:59:00,
2013-03-27 03:00:00,44.7,30.4,30.27,SSE,155,0.0,2.0,57,0.00,,,0.00,VWS V14.01,2013-03-27 08:00:00,
2013-03-27 03:04:00,44.5,30.2,30.26,SE,138,0.0,1.0,57,0.00,,,0.00,VWS V14.01,2013-03-27 08:04:00,
2013-03-27 03:09:00,44.4,30.6,30.26,SE,136,0.0,1.0,58,0.00,,,0.00,VWS V14.01,2013-03-27 08:09:00,
2013-03-27 03:14:00,44.2,30.4,30.26,SE,136,0.0,1.0,58,0.00,,,0.00,VWS V14.01,2013-03-27 08:14:00,
2013-03-27 03:19:00,44.2,30.4,30.26,SE,134,0.0,1.0,58,0.00,,,0.00,VWS V14.01,2013-03-27 08:19:00,
2013-03-27 03:24:00,44.1,30.7,30.26,SE,137,0.0,1.0,59,0.00,,,0.00,VWS V14.01,2013-03-27 08:24:00,
2013-03-27 03:29:00,43.9,30.5,30.26,SE,136,0.0,1.0,59,0.00,,,0.00,VWS V14.01,2013-03-27 08:29:00,
2013-03-27 03:30:00,43.9,30.5,30.26,SE,136,0.0,1.0,59,0.00,,,0.00,VWS V14.01,2013-03-27 08:30:00,
2013-03-27 03:34:00,43.6,30.6,30.26,SE,136,0.0,0.0,60,0.00,,,0.00,VWS V14.01,2013-03-27 08:34:00,
2013-03-27 03:39:00,43.3,30.4,30.26,SE,137,0.0,0.0,60,0.00,,,0.00,VWS V14.01,2013-03-27 08:39:00,
2013-03-27 03:44:00,43.1,30.6,30.26,SE,138,0.0,1.0,61,0.00,,,0.00,VWS V14.01,2013-03-27 08:44:00,
2013-03-27 03:49:00,42.9,30.4,30.26,SE,138,0.0,1.0,61,0.00,,,0.00,VWS V14.01,2013-03-27 08:49:00,
2013-03-27 03:54:00,42.5,30.0,30.26,SE,138,0.0,1.0,61,0.00,,,0.00,VWS V14.01,2013-03-27 08:54:00,
2013-03-27 03:59:00,42.2,30.1,30.26,SE,139,0.0,1.0,62,0.00,,,0.00,VWS V14.01,2013-03-27 08:59:00,
2013-03-27 04:00:00,42.1,30.0,30.26,SE,139,0.0,1.0,62,0.00,,,0.00,VWS V14.01,2013-03-27 09:00:00,
2013-03-27 04:04:00,41.7,30.0,30.26,SE,138,0.0,0.0,63,0.00,,,0.00,VWS V14.01,2013-03-27 09:04:00,
2013-03-27 04:09:00,41.7,30.0,30.26,SE,139,0.0,0.0,63,0.00,,,0.00,VWS V14.01,2013-03-27 09:09:00,
2013-03-27 04:14:00,41.5,30.2,30.26,SE,138,0.0,0.0,64,0.00,,,0.00,VWS V14.01,2013-03-27 09:14:00,
2013-03-27 04:19:00,41.5,30.2,30.25,SE,138,0.0,0.0,64,0.00,,,0.00,VWS V14.01,2013-03-27 09:19:00,
2013-03-27 04:24:00,41.3,30.1,30.25,SE,139,0.0,0.0,64,0.00,,,0.00,VWS V14.01,2013-03-27 09:24:00,
2013-03-27 04:29:00,41.1,30.2,30.25,SE,139,0.0,0.0,65,0.00,,,0.00,VWS V14.01,2013-03-27 09:29:00,
2013-03-27 04:30:00,41.1,30.2,30.25,SE,139,0.0,0.0,65,0.00,,,0.00,VWS V14.01,2013-03-27 09:30:00,
2013-03-27 04:34:00,41.6,30.7,30.25,SE,139,0.0,0.0,65,0.00,,,0.00,VWS V14.01,2013-03-27 09:34:00,
2013-03-27 04:39:00,42.0,30.7,30.25,SE,139,0.0,0.0,64,0.00,,,0.00,VWS V14.01,2013-03-27 09:39:00,
2013-03-27 04:44:00,42.1,30.8,30.25,SE,138,0.0,0.0,64,0.00,,,0.00,VWS V14.01,2013-03-27 09:44:00,
2013-03-27 04:49:00,42.2,30.9,30.25,SE,138,0.0,0.0,64,0.00,,,0.00,VWS V14.01,2013-03-27 09:49:00,
2013-03-27 04:55:00,42.3,31.0,30.25,SE,138,0.0,1.0,64,0.00,,,0.00,VWS V14.01,2013-03-27 09:55:00,
2013-03-27 05:00:00,42.3,30.6,30.25,SE,139,0.0,1.0,63,0.00,,,0.00,VWS V14.01,2013-03-27 10:00:00,
2013-03-27 05:05:00,42.1,30.8,30.25,SE,139,0.0,0.0,64,0.00,,,0.00,VWS V14.01,2013-03-27 10:05:00,
2013-03-27 05:10:00,42.3,31.0,30.25,SE,138,0.0,0.0,64,0.00,,,0.00,VWS V14.01,2013-03-27 10:10:00,
2013-03-27 05:15:00,42.3,30.6,30.25,SE,138,0.0,0.0,63,0.00,,,0.00,VWS V14.01,2013-03-27 10:15:00,
2013-03-27 05:20:00,42.2,30.9,30.25,SE,139,0.0,0.0,64,0.00,,,0.00,VWS V14.01,2013-03-27 10:20:00,
2013-03-27 05:25:00,42.1,30.8,30.25,SE,138,0.0,0.0,64,0.00,,,0.00,VWS V14.01,2013-03-27 10:25:00,
2013-03-27 05:30:00,42.1,31.2,30.25,SE,139,0.0,0.0,65,0.00,,,0.00,VWS V14.01,2013-03-27 10:30:00,
2013-03-27 05:35:00,41.9,31.0,30.25,SE,138,0.0,0.0,65,0.00,,,0.00,VWS V14.01,2013-03-27 10:35:00,
2013-03-27 05:40:00,41.7,30.8,30.25,SE,138,0.0,0.0,65,0.00,,,0.00,VWS V14.01,2013-03-27 10:40:00,
2013-03-27 05:45:00,41.6,30.7,30.25,SE,138,0.0,0.0,65,0.00,,,0.00,VWS V14.01,2013-03-27 10:45:00,
2013-03-27 05:50:00,41.6,30.7,30.25,ENE,75,1.0,1.0,65,0.00,,,0.00,VWS V14.01,2013-03-27 10:50:00,
2013-03-27 05:55:00,41.8,30.9,30.25,ENE,72,0.0,1.0,65,0.00,,,0.00,VWS V14.01,2013-03-27 10:55:00,
2013-03-27 06:00:00,41.8,30.9,30.25,ENE,72,0.0,1.0,65,0.00,,,0.00,VWS V14.01,2013-03-27 11:00:00,
2013-03-27 06:01:00,41.8,30.9,30.25,ENE,72,0.0,1.0,65,0.00,,,0.00,VWS V14.01,2013-03-27 11:01:00,
2013-03-27 06:06:00,41.8,30.9,30.25,ENE,71,1.0,1.0,65,0.00,,,0.00,VWS V14.01,2013-03-27 11:06:00,
2013-03-27 06:11:00,42.1,31.2,30.25,ENE,68,0.0,1.0,65,0.00,,,0.00,VWS V14.01,2013-03-27 11:11:00,
2013-03-27 06:16:00,42.3,31.0,30.25,ENE,67,0.0,1.0,64,0.00,,,0.00,VWS V14.01,2013-03-27 11:16:00,
2013-03-27 06:21:00,42.5,31.2,30.25,NE,51,1.0,1.0,64,0.00,,,0.00,VWS V14.01,2013-03-27 11:21:00,
2013-03-27 06:26:00,42.5,31.2,30.25,NE,41,0.0,1.0,64,0.00,,,0.00,VWS V14.01,2013-03-27 11:26:00,
2013-03-27 06:30:00,42.3,31.4,30.25,NNE,20,1.0,1.0,65,0.00,,,0.00,VWS V14.01,2013-03-27 11:30:00,
2013-03-27 06:31:00,42.2,31.3,30.25,North,356,1.0,1.0,65,0.00,,,0.00,VWS V14.01,2013-03-27 11:31:00,
2013-03-27 06:37:00,41.8,31.3,30.26,North,352,0.0,1.0,66,0.00,,,0.00,VWS V14.01,2013-03-27 11:37:00,
2013-03-27 06:42:00,41.6,31.5,30.26,North,351,0.0,1.0,67,0.00,,,0.00,VWS V14.01,2013-03-27 11:42:00,
2013-03-27 06:47:00,41.9,31.8,30.26,North,352,0.0,1.0,67,0.00,,,0.00,VWS V14.01,2013-03-27 11:47:00,
2013-03-27 06:52:00,42.1,32.0,30.26,North,356,0.0,1.0,67,0.00,,,0.00,VWS V14.01,2013-03-27 11:52:00,
2013-03-27 06:57:00,42.4,31.9,30.26,NE,35,0.0,2.0,66,0.00,,,0.00,VWS V14.01,2013-03-27 11:57:00,
2013-03-27 07:00:00,42.5,31.6,30.26,NE,49,0.0,2.0,65,0.00,,,0.00,VWS V14.01,2013-03-27 12:00:00,
2013-03-27 07:02:00,42.7,31.8,30.26,NE,53,1.0,1.0,65,0.00,,,0.00,VWS V14.01,2013-03-27 12:02:00,
2013-03-27 07:07:00,43.0,32.1,30.26,NE,44,0.0,2.0,65,0.00,,,0.00,VWS V14.01,2013-03-27 12:07:00,
2013-03-27 07:12:00,43.1,31.8,30.26,NE,40,0.0,2.0,64,0.00,,,0.00,VWS V14.01,2013-03-27 12:12:00,
2013-03-27 07:17:00,43.2,31.9,30.26,NE,40,0.0,2.0,64,0.00,,,0.00,VWS V14.01,2013-03-27 12:17:00,
2013-03-27 07:22:00,43.3,32.0,30.26,NE,37,1.0,2.0,64,0.00,,,0.00,VWS V14.01,2013-03-27 12:22:00,
2013-03-27 07:28:00,43.4,32.0,30.27,NNE,21,2.0,2.0,64,0.00,,,0.00,VWS V14.01,2013-03-27 12:28:00,
2013-03-27 07:30:00,43.5,32.2,30.27,NNE,15,0.0,2.0,64,0.00,,,0.00,VWS V14.01,2013-03-27 12:30:00,
2013-03-27 07:33:00,43.5,32.2,30.26,NNE,25,1.0,2.0,64,0.00,,,0.00,VWS V14.01,2013-03-27 12:33:00,
2013-03-27 07:38:00,43.4,32.4,30.26,ENE,58,1.0,2.0,65,0.00,,,0.00,VWS V14.01,2013-03-27 12:38:00,
2013-03-27 07:43:00,43.2,32.6,30.26,ENE,67,0.0,2.0,66,0.00,,,0.00,VWS V14.01,2013-03-27 12:43:00,
2013-03-27 07:48:00,43.2,32.6,30.26,NE,55,1.0,2.0,66,0.00,,,0.00,VWS V14.01,2013-03-27 12:48:00,
2013-03-27 07:53:00,43.3,32.7,30.26,NE,53,1.0,2.0,66,0.00,,,0.00,VWS V14.01,2013-03-27 12:53:00,
2013-03-27 07:58:00,43.6,33.0,30.27,NNE,26,0.0,2.0,66,0.00,,,0.00,VWS V14.01,2013-03-27 12:58:00,
2013-03-27 08:00:00,43.7,33.1,30.27,ENE,65,0.0,2.0,66,0.00,,,0.00,VWS V14.01,2013-03-27 13:00:00,
2013-03-27 08:03:00,43.9,33.3,30.27,North,355,0.0,1.0,66,0.00,,,0.00,VWS V14.01,2013-03-27 13:03:00,
2013-03-27 08:08:00,44.2,33.6,30.27,NE,53,0.0,3.0,66,0.00,,,0.00,VWS V14.01,2013-03-27 13:08:00,
2013-03-27 08:13:00,44.5,33.9,30.27,NE,56,1.0,3.0,66,0.00,,,0.00,VWS V14.01,2013-03-27 13:13:00,
2013-03-27 08:18:00,44.8,34.2,30.27,NE,47,0.0,3.0,66,0.00,,,0.00,VWS V14.01,2013-03-27 13:18:00,
2013-03-27 08:24:00,45.1,34.0,30.27,ENE,58,1.0,3.0,65,0.00,,,0.00,VWS V14.01,2013-03-27 13:24:00,
2013-03-27 08:29:00,45.3,33.9,30.28,NE,56,1.0,3.0,64,0.00,,,0.00,VWS V14.01,2013-03-27 13:29:00,
2013-03-27 08:30:00,45.3,33.8,30.28,NE,53,0.0,3.0,64,0.00,,,0.00,VWS V14.01,2013-03-27 13:30:00,
2013-03-27 08:34:00,45.4,33.6,30.28,ENE,73,0.0,3.0,63,0.00,,,0.00,VWS V14.01,2013-03-27 13:34:00,
2013-03-27 08:39:00,45.6,34.1,30.28,NE,44,2.0,4.0,64,0.00,,,0.00,VWS V14.01,2013-03-27 13:39:00,
2013-03-27 08:44:00,45.9,34.4,30.29,ENE,63,0.0,4.0,64,0.00,,,0.00,VWS V14.01,2013-03-27 13:44:00,
2013-03-27 08:49:00,46.3,34.4,30.29,East,92,2.0,4.0,63,0.00,,,0.00,VWS V14.01,2013-03-27 13:49:00,
2013-03-27 08:54:00,46.7,34.8,30.28,East,96,1.0,4.0,63,0.00,,,0.00,VWS V14.01,2013-03-27 13:54:00,
2013-03-27 08:59:00,47.5,35.5,30.28,NE,54,1.0,4.0,63,0.00,,,0.00,VWS V14.01,2013-03-27 13:59:00,
2013-03-27 09:00:00,47.6,35.6,30.28,ESE,102,3.0,4.0,63,0.00,,,0.00,VWS V14.01,2013-03-27 14:00:00,
2013-03-27 09:04:00,48.6,36.2,30.29,East,84,2.0,4.0,62,0.00,,,0.00,VWS V14.01,2013-03-27 14:04:00,
2013-03-27 09:09:00,50.4,37.0,30.29,ENE,76,6.0,7.0,60,0.00,,,0.00,VWS V14.01,2013-03-27 14:09:00,
2013-03-27 09:14:00,51.7,37.4,30.29,East,94,3.0,7.0,58,0.00,,,0.00,VWS V14.01,2013-03-27 14:14:00,
2013-03-27 09:19:00,52.8,37.5,30.29,SE,126,4.0,7.0,56,0.00,,,0.00,VWS V14.01,2013-03-27 14:19:00,
2013-03-27 09:24:00,52.8,37.1,30.29,East,97,2.0,7.0,55,0.00,,,0.00,VWS V14.01,2013-03-27 14:24:00,
2013-03-27 09:29:00,53.0,37.7,30.29,ESE,108,2.0,7.0,56,0.00,,,0.00,VWS V14.01,2013-03-27 14:29:00,
2013-03-27 09:30:00,53.0,37.7,30.29,ESE,113,5.0,7.0,56,0.00,,,0.00,VWS V14.01,2013-03-27 14:30:00,
2013-03-27 09:34:00,53.3,38.0,30.29,ESE,105,3.0,5.0,56,0.00,,,0.00,VWS V14.01,2013-03-27 14:34:00,
2013-03-27 09:39:00,53.6,38.3,30.29,SSE,159,2.0,10.0,56,0.00,,,0.00,VWS V14.01,2013-03-27 14:39:00,
2013-03-27 09:44:00,53.9,38.1,30.30,ESE,120,5.0,10.0,55,0.00,,,0.00,VWS V14.01,2013-03-27 14:44:00,
2013-03-27 09:49:00,54.2,38.4,30.30,ESE,113,4.0,10.0,55,0.00,,,0.00,VWS V14.01,2013-03-27 14:49:00,
2013-03-27 09:54:00,54.9,39.0,30.30,SE,132,2.0,10.0,55,0.00,,,0.00,VWS V14.01,2013-03-27 14:54:00,
2013-03-27 09:59:00,55.4,39.0,30.30,SE,133,2.0,10.0,54,0.00,,,0.00,VWS V14.01,2013-03-27 14:59:00,
2013-03-27 10:00:00,55.4,39.0,30.30,SSE,160,2.0,10.0,54,0.00,,,0.00,VWS V14.01,2013-03-27 15:00:00,
2013-03-27 10:04:00,55.8,39.4,30.30,East,88,4.0,5.0,54,0.00,,,0.00,VWS V14.01,2013-03-27 15:04:00,
2013-03-27 10:09:00,56.6,40.6,30.30,SSW,192,4.0,8.0,55,0.00,,,0.00,VWS V14.01,2013-03-27 15:09:00,
2013-03-27 10:14:00,57.2,40.7,30.30,ESE,121,3.0,8.0,54,0.00,,,0.00,VWS V14.01,2013-03-27 15:14:00,
2013-03-27 10:19:00,57.5,41.5,30.31,ENE,74,3.0,12.0,55,0.00,,,0.00,VWS V14.01,2013-03-27 15:19:00,
2013-03-27 10:24:00,57.6,41.1,30.30,SE,142,3.0,12.0,54,0.00,,,0.00,VWS V14.01,2013-03-27 15:24:00,
2013-03-27 10:29:00,57.9,41.4,30.30,South,177,5.0,12.0,54,0.00,,,0.00,VWS V14.01,2013-03-27 15:29:00,
2013-03-27 10:30:00,57.9,41.4,30.30,SSE,152,4.0,12.0,54,0.00,,,0.00,VWS V14.01,2013-03-27 15:30:00,
2013-03-27 10:34:00,58.0,41.0,30.30,SE,135,6.0,10.0,53,0.00,,,0.00,VWS V14.01,2013-03-27 15:34:00,
2013-03-27 10:39:00,58.3,41.3,30.30,ESE,117,4.0,10.0,53,0.00,,,0.00,VWS V14.01,2013-03-27 15:39:00,
2013-03-27 10:45:00,58.7,41.6,30.30,South,169,3.0,10.0,53,0.00,,,0.00,VWS V14.01,2013-03-27 15:45:00,
2013-03-27 10:50:00,59.4,41.8,30.30,South,180,6.0,11.0,52,0.00,,,0.00,VWS V14.01,2013-03-27 15:50:00,
2013-03-27 10:55:00,59.3,41.2,30.30,SW,233,9.0,12.0,51,0.00,,,0.00,VWS V14.01,2013-03-27 15:55:00,
2013-03-27 11:00:00,59.3,40.7,30.30,SE,136,5.0,12.0,50,0.00,,,0.00,VWS V14.01,2013-03-27 16:00:00,
2013-03-27 11:05:00,59.8,41.1,30.30,SE,136,5.0,11.0,50,0.00,,,0.00,VWS V14.01,2013-03-27 16:05:00,
2013-03-27 11:10:00,60.1,40.4,30.29,SE,131,6.0,13.0,48,0.00,,,0.00,VWS V14.01,2013-03-27 16:10:00,
2013-03-27 11:15:00,60.9,40.5,30.30,ESE,118,8.0,13.0,47,0.00,,,0.00,VWS V14.01,2013-03-27 16:15:00,
2013-03-27 11:20:00,60.8,39.9,30.29,SE,136,4.0,13.0,46,0.00,,,0.00,VWS V14.01,2013-03-27 16:20:00,
2013-03-27 11:25:00,60.8,40.5,30.29,SSE,162,4.0,13.0,47,0.00,,,0.00,VWS V14.01,2013-03-27 16:25:00,
2013-03-27 11:30:00,60.8,39.9,30.29,WSW,250,4.0,10.0,46,0.00,,,0.00,VWS V14.01,2013-03-27 16:30:00,
2013-03-27 11:35:00,61.1,40.2,30.29,SSE,148,5.0,13.0,46,0.00,,,0.00,VWS V14.01,2013-03-27 16:35:00,
2013-03-27 11:40:00,61.1,40.7,30.29,SSW,212,4.0,13.0,47,0.00,,,0.00,VWS V14.01,2013-03-27 16:40:00,
2013-03-27 11:45:00,61.5,41.7,30.29,ESE,122,2.0,13.0,48,0.00,,,0.00,VWS V14.01,2013-03-27 16:45:00,
2013-03-27 11:50:00,61.4,40.5,30.30,SSW,201,6.0,13.0,46,0.00,,,0.00,VWS V14.01,2013-03-27 16:50:00,
2013-03-27 11:55:00,61.1,41.3,30.29,ESE,110,9.0,13.0,48,0.00,,,0.00,VWS V14.01,2013-03-27 16:55:00,
2013-03-27 12:00:00,61.1,40.7,30.29,ESE,118,8.0,8.0,47,0.00,,,0.00,VWS V14.01,2013-03-27 17:00:00,
2013-03-27 12:05:00,61.5,41.1,30.29,East,93,8.0,9.0,47,0.00,,,0.00,VWS V14.01,2013-03-27 17:05:00,
2013-03-27 12:10:00,61.7,41.3,30.29,SSE,166,4.0,9.0,47,0.00,,,0.00,VWS V14.01,2013-03-27 17:10:00,
2013-03-27 12:15:00,61.7,41.3,30.29,South,188,6.0,10.0,47,0.00,,,0.00,VWS V14.01,2013-03-27 17:15:00,
2013-03-27 12:20:00,61.6,41.2,30.28,ESE,123,3.0,12.0,47,0.00,,,0.00,VWS V14.01,2013-03-27 17:20:00,
2013-03-27 12:25:00,61.9,41.5,30.28,SSE,153,5.0,12.0,47,0.00,,,0.00,VWS V14.01,2013-03-27 17:25:00,
2013-03-27 12:30:00,62.1,41.1,30.28,SSE,154,7.0,11.0,46,0.00,,,0.00,VWS V14.01,2013-03-27 17:30:00,
2013-03-27 12:35:00,62.1,40.0,30.28,SW,236,11.0,12.0,44,0.00,,,0.00,VWS V14.01,2013-03-27 17:35:00,
2013-03-27 12:40:00,61.9,40.9,30.28,SSE,155,7.0,13.0,46,0.00,,,0.00,VWS V14.01,2013-03-27 17:40:00,
2013-03-27 12:45:00,62.0,41.6,30.27,SW,218,10.0,13.0,47,0.00,,,0.00,VWS V14.01,2013-03-27 17:45:00,
2013-03-27 13:00:00,62.3,40.1,30.27,SSE,158,6.0,15.0,44,0.00,,,0.00,VWS V14.01,2013-03-27 18:00:00,
2013-03-27 13:30:00,62.9,42.4,30.25,SE,135,5.0,12.0,47,0.00,,,0.00,VWS V14.01,2013-03-27 18:30:00,
2013-03-27 14:00:00,63.7,42.0,30.24,SSE,158,5.0,12.0,45,0.00,,,0.00,VWS V14.01,2013-03-27 19:00:00,
2013-03-27 14:30:00,64.3,42.5,30.23,SSE,158,5.0,13.0,45,0.00,,,0.00,VWS V14.01,2013-03-27 19:30:00,
2013-03-27 15:00:00,66.1,44.2,30.21,SE,135,6.0,18.0,45,0.00,,,0.00,VWS V14.01,2013-03-27 20:00:00,
2013-03-27 15:30:00,64.8,44.1,30.19,SSE,158,6.0,12.0,47,0.00,,,0.00,VWS V14.01,2013-03-27 20:30:00,
2013-03-27 16:00:00,67.4,45.9,30.17,SSE,158,5.0,14.0,46,0.00,,,0.00,VWS V14.01,2013-03-27 21:00:00,
2013-03-27 16:30:00,67.2,45.7,30.16,ESE,112,6.0,16.0,46,0.00,,,0.00,VWS V14.01,2013-03-27 21:30:00,
2013-03-27 17:19:00,67.2,45.7,30.16,ESE,112,6.0,16.0,46,0.00,,,0.00,VWS V14.01,2013-03-27 22:19:00,
2013-03-27 17:24:00,67.5,46.6,30.14,SW,214,6.0,11.0,47,0.00,,,0.00,VWS V14.01,2013-03-27 22:24:00,
2013-03-27 17:29:00,67.4,46.5,30.14,SSE,158,8.0,11.0,47,0.00,,,0.00,VWS V14.01,2013-03-27 22:29:00,
2013-03-27 17:34:00,67.2,46.3,30.14,SSE,166,6.0,10.0,47,0.00,,,0.00,VWS V14.01,2013-03-27 22:34:00,
2013-03-27 17:39:00,66.9,46.6,30.14,East,100,9.0,12.0,48,0.00,,,0.00,VWS V14.01,2013-03-27 22:39:00,
2013-03-27 17:44:00,66.6,46.9,30.14,SW,219,10.0,12.0,49,0.00,,,0.00,VWS V14.01,2013-03-27 22:44:00,
2013-03-27 17:49:00,66.5,46.8,30.15,South,186,8.0,13.0,49,0.00,,,0.00,VWS V14.01,2013-03-27 22:49:00,
2013-03-27 17:54:00,66.2,46.5,30.14,SSW,205,6.0,13.0,49,0.00,,,0.00,VWS V14.01,2013-03-27 22:54:00,
2013-03-27 17:59:00,65.9,46.8,30.15,SE,139,3.0,15.0,50,0.00,,,0.00,VWS V14.01,2013-03-27 22:59:00,
2013-03-27 18:04:00,66.0,46.3,30.15,SSE,162,4.0,8.0,49,0.00,,,0.00,VWS V14.01,2013-03-27 23:04:00,
2013-03-27 18:09:00,65.9,46.8,30.15,ESE,112,4.0,12.0,50,0.00,,,0.00,VWS V14.01,2013-03-27 23:09:00,
2013-03-27 18:14:00,65.9,46.8,30.14,SE,128,2.0,12.0,50,0.00,,,0.00,VWS V14.01,2013-03-27 23:14:00,
2013-03-27 18:19:00,66.0,46.8,30.14,SSE,150,10.0,12.0,50,0.00,,,0.00,VWS V14.01,2013-03-27 23:19:00,
2013-03-27 18:24:00,65.8,46.7,30.14,SSE,160,5.0,12.0,50,0.00,,,0.00,VWS V14.01,2013-03-27 23:24:00,
2013-03-27 18:29:00,65.9,46.8,30.14,SE,129,7.0,12.0,50,0.00,,,0.00,VWS V14.01,2013-03-27 23:29:00,
2013-03-27 18:34:00,65.7,47.1,30.14,SSE,148,4.0,15.0,51,0.00,,,0.00,VWS V14.01,2013-03-27 23:34:00,
2013-03-27 18:39:00,65.6,47.0,30.14,SE,141,3.0,15.0,51,0.00,,,0.00,VWS V14.01,2013-03-27 23:39:00,
2013-03-27 18:44:00,65.4,46.8,30.14,ESE,115,4.0,15.0,51,0.00,,,0.00,VWS V14.01,2013-03-27 23:44:00,
2013-03-27 18:49:00,65.3,47.2,30.14,SE,134,6.0,15.0,52,0.00,,,0.00,VWS V14.01,2013-03-27 23:49:00,
2013-03-27 18:54:00,65.2,47.2,30.15,SSW,203,4.0,15.0,52,0.00,,,0.00,VWS V14.01,2013-03-27 23:54:00,
2013-03-27 18:59:00,65.0,47.0,30.15,SE,128,5.0,15.0,52,0.00,,,0.00,VWS V14.01,2013-03-27 23:59:00,
2013-03-27 19:04:00,64.8,47.3,30.15,South,176,5.0,7.0,53,0.00,,,0.00,VWS V14.01,2013-03-28 00:04:00,
2013-03-27 19:09:00,64.7,47.2,30.15,SSE,165,5.0,8.0,53,0.00,,,0.00,VWS V14.01,2013-03-28 00:09:00,
2013-03-27 19:14:00,64.6,47.1,30.15,South,173,4.0,10.0,53,0.00,,,0.00,VWS V14.01,2013-03-28 00:14:00,
2013-03-27 19:19:00,64.4,46.9,30.15,ESE,120,6.0,11.0,53,0.00,,,0.00,VWS V14.01,2013-03-28 00:19:00,
2013-03-27 19:24:00,64.3,47.3,30.15,SE,129,6.0,11.0,54,0.00,,,0.00,VWS V14.01,2013-03-28 00:24:00,
2013-03-27 19:29:00,64.2,47.2,30.15,SE,144,3.0,11.0,54,0.00,,,0.00,VWS V14.01,2013-03-28 00:29:00,
2013-03-27 19:34:00,64.0,47.0,30.15,South,169,3.0,11.0,54,0.00,,,0.00,VWS V14.01,2013-03-28 00:34:00,
2013-03-27 19:39:00,63.9,47.4,30.15,ESE,122,3.0,11.0,55,0.00,,,0.00,VWS V14.01,2013-03-28 00:39:00,
2013-03-27 19:44:00,63.8,47.3,30.15,South,189,8.0,13.0,55,0.00,,,0.00,VWS V14.01,2013-03-28 00:44:00,
2013-03-27 19:49:00,63.7,47.2,30.15,East,91,3.0,13.0,55,0.00,,,0.00,VWS V14.01,2013-03-28 00:49:00,
2013-03-27 19:54:00,63.6,47.2,30.15,ESE,109,3.0,13.0,55,0.00,,,0.00,VWS V14.01,2013-03-28 00:54:00,
2013-03-27 19:59:00,63.5,47.1,30.16,SSE,165,3.0,13.0,55,0.00,,,0.00,VWS V14.01,2013-03-28 00:59:00,
2013-03-27 20:04:00,63.4,47.0,30.15,South,172,5.0,10.0,55,0.00,,,0.00,VWS V14.01,2013-03-28 01:04:00,
2013-03-27 20:09:00,63.3,47.3,30.16,East,95,6.0,10.0,56,0.00,,,0.00,VWS V14.01,2013-03-28 01:09:00,
2013-03-27 20:14:00,63.3,47.3,30.16,SE,142,1.0,11.0,56,0.00,,,0.00,VWS V14.01,2013-03-28 01:14:00,
2013-03-27 20:19:00,63.2,47.3,30.16,South,172,4.0,11.0,56,0.00,,,0.00,VWS V14.01,2013-03-28 01:19:00,
2013-03-27 20:24:00,63.1,47.2,30.16,SE,139,3.0,11.0,56,0.00,,,0.00,VWS V14.01,2013-03-28 01:24:00,
2013-03-27 20:29:00,63.1,47.2,30.16,SSE,155,3.0,11.0,56,0.00,,,0.00,VWS V14.01,2013-03-28 01:29:00,
2013-03-27 20:34:00,63.0,47.5,30.16,SE,135,5.0,10.0,57,0.00,,,0.00,VWS V14.01,2013-03-28 01:34:00,
2013-03-27 20:39:00,62.9,47.5,30.16,ESE,118,8.0,12.0,57,0.00,,,0.00,VWS V14.01,2013-03-28 01:39:00,
2013-03-27 20:44:00,62.8,47.4,30.16,ESE,104,3.0,12.0,57,0.00,,,0.00,VWS V14.01,2013-03-28 01:44:00,
2013-03-27 20:49:00,62.7,47.7,30.16,SE,143,4.0,12.0,58,0.00,,,0.00,VWS V14.01,2013-03-28 01:49:00,
2013-03-27 20:54:00,62.6,47.6,30.17,South,173,2.0,12.0,58,0.00,,,0.00,VWS V14.01,2013-03-28 01:54:00,
2013-03-27 20:59:00,62.6,47.6,30.17,SSE,151,2.0,12.0,58,0.00,,,0.00,VWS V14.01,2013-03-28 01:59:00,
2013-03-27 21:04:00,62.4,47.9,30.17,SE,125,5.0,7.0,59,0.00,,,0.00,VWS V14.01,2013-03-28 02:04:00,
2013-03-27 21:09:00,62.3,47.8,30.17,SSE,163,3.0,9.0,59,0.00,,,0.00,VWS V14.01,2013-03-28 02:09:00,
2013-03-27 21:14:00,62.2,47.7,30.17,ESE,110,3.0,9.0,59,0.00,,,0.00,VWS V14.01,2013-03-28 02:14:00,
2013-03-27 21:19:00,62.1,48.1,30.17,East,99,3.0,9.0,60,0.00,,,0.00,VWS V14.01,2013-03-28 02:19:00,
2013-03-27 21:24:00,62.0,48.0,30.17,SW,228,5.0,9.0,60,0.00,,,0.00,VWS V14.01,2013-03-28 02:24:00,
2013-03-27 21:29:00,62.0,48.0,30.17,ESE,104,4.0,11.0,60,0.00,,,0.00,VWS V14.01,2013-03-28 02:29:00,
2013-03-27 21:34:00,61.9,47.9,30.17,SE,141,4.0,10.0,60,0.00,,,0.00,VWS V14.01,2013-03-28 02:34:00,
2013-03-27 21:39:00,61.8,47.8,30.17,SSE,150,2.0,10.0,60,0.00,,,0.00,VWS V14.01,2013-03-28 02:39:00,
2013-03-27 21:44:00,61.7,48.1,30.17,ESE,111,7.0,10.0,61,0.00,,,0.00,VWS V14.01,2013-03-28 02:44:00,
2013-03-27 21:49:00,61.6,48.0,30.17,SE,136,3.0,10.0,61,0.00,,,0.00,VWS V14.01,2013-03-28 02:49:00,
2013-03-27 21:54:00,61.5,47.9,30.17,SE,139,6.0,13.0,61,0.00,,,0.00,VWS V14.01,2013-03-28 02:54:00,
2013-03-27 21:59:00,61.4,48.3,30.17,WSW,238,5.0,13.0,62,0.00,,,0.00,VWS V14.01,2013-03-28 02:59:00,
2013-03-27 22:04:00,61.3,48.2,30.17,South,177,2.0,8.0,62,0.00,,,0.00,VWS V14.01,2013-03-28 03:04:00,
2013-03-27 22:09:00,61.3,48.2,30.17,ESE,122,1.0,10.0,62,0.00,,,0.00,VWS V14.01,2013-03-28 03:09:00,
2013-03-27 22:14:00,61.2,47.7,30.17,SSE,156,4.0,10.0,61,0.00,,,0.00,VWS V14.01,2013-03-28 03:14:00,
2013-03-27 22:19:00,61.1,47.6,30.17,SSE,150,5.0,10.0,61,0.00,,,0.00,VWS V14.01,2013-03-28 03:19:00,
2013-03-27 22:24:00,61.1,48.0,30.18,East,79,4.0,10.0,62,0.00,,,0.00,VWS V14.01,2013-03-28 03:24:00,
2013-03-27 22:29:00,61.0,47.9,30.18,South,174,5.0,10.0,62,0.00,,,0.00,VWS V14.01,2013-03-28 03:29:00,
2013-03-27 22:34:00,60.9,47.8,30.18,SE,132,4.0,6.0,62,0.00,,,0.00,VWS V14.01,2013-03-28 03:34:00,
2013-03-27 22:39:00,60.8,47.7,30.18,South,169,4.0,6.0,62,0.00,,,0.00,VWS V14.01,2013-03-28 03:39:00,
2013-03-27 22:44:00,60.7,48.0,30.18,South,170,5.0,7.0,63,0.00,,,0.00,VWS V14.01,2013-03-28 03:44:00,
2013-03-27 22:49:00,60.6,48.0,30.18,SSE,162,5.0,11.0,63,0.00,,,0.00,VWS V14.01,2013-03-28 03:49:00,
2013-03-27 22:54:00,60.6,48.0,30.18,SSW,208,4.0,11.0,63,0.00,,,0.00,VWS V14.01,2013-03-28 03:54:00,
2013-03-27 22:59:00,60.5,48.3,30.18,SE,143,4.0,11.0,64,0.00,,,0.00,VWS V14.01,2013-03-28 03:59:00,
2013-03-27 23:00:00,60.5,48.3,30.18,South,176,6.0,7.0,64,0.00,,,0.00,VWS V14.01,2013-03-28 04:00:00,
2013-03-27 23:05:00,60.5,48.3,30.18,SSE,160,2.0,7.0,64,0.00,,,0.00,VWS V14.01,2013-03-28 04:05:00,
2013-03-27 23:10:00,60.4,48.6,30.18,South,183,3.0,7.0,65,0.00,,,0.00,VWS V14.01,2013-03-28 04:10:00,
2013-03-27 23:15:00,60.3,48.9,30.18,ESE,118,3.0,10.0,66,0.00,,,0.00,VWS V14.01,2013-03-28 04:15:00,
2013-03-27 23:20:00,60.3,48.9,30.18,SSE,153,2.0,10.0,66,0.00,,,0.00,VWS V14.01,2013-03-28 04:20:00,
2013-03-27 23:25:00,60.2,49.2,30.18,WSW,239,4.0,10.0,67,0.00,,,0.00,VWS V14.01,2013-03-28 04:25:00,
2013-03-27 23:30:00,60.2,49.2,30.18,SE,131,1.0,3.0,67,0.00,,,0.00,VWS V14.01,2013-03-28 04:30:00,
2013-03-27 23:35:00,60.1,49.1,30.18,ESE,119,3.0,7.0,67,0.00,,,0.00,VWS V14.01,2013-03-28 04:35:00,
2013-03-27 23:40:00,60.1,49.1,30.18,SSW,198,7.0,7.0,67,0.00,,,0.00,VWS V14.01,2013-03-28 04:40:00,
2013-03-27 23:45:00,60.0,49.4,30.18,South,180,2.0,7.0,68,0.00,,,0.00,VWS V14.01,2013-03-28 04:45:00,
2013-03-27 23:50:00,60.0,49.8,30.18,ESE,120,3.0,8.0,69,0.00,,,0.00,VWS V14.01,2013-03-28 04:50:00,
2013-03-27 23:55:00,59.9,49.7,30.18,South,181,4.0,8.0,69,0.00,,,0.00,VWS V14.01,2013-03-28 04:55:00,